TimeCST,TemperatureF,Dew PointF,Humidity,Sea Level PressureIn,VisibilityMPH,Wind Direction,Wind SpeedMPH,Gust SpeedMPH,PrecipitationIn,Events,Conditions,WindDirDegrees,DateUTC
12:15 AM,41.0,32.0,70,30.13,10.0,Calm,Calm,-,N/A,,Clear,0,2012-11-30 06:15:00
12:35 AM,39.2,32.0,75,30.13,10.0,Calm,Calm,-,N/A,,Clear,0,2012-11-30 06:35:00
12:55 AM,39.2,32.0,75,30.13,10.0,Calm,Calm,-,N/A,,Clear,0,2012-11-30 06:55:00
1:15 AM,39.2,32.0,75,30.12,10.0,Calm,Calm,-,N/A,,Clear,0,2012-11-30 07:15:00
1:35 AM,39.2,32.0,75,30.12,10.0,Calm,Calm,-,N/A,,Clear,0,2012-11-30 07:35:00
1:55 AM,39.2,32.0,75,30.12,10.0,Calm,Calm,-,N/A,,Clear,0,2012-11-30 07:55:00
2:15 AM,41.0,33.8,76,30.12,10.0,Calm,Calm,-,N/A,,Clear,0,2012-11-30 08:15:00
2:35 AM,46.4,33.8,62,30.11,10.0,South,3.5,-,N/A,,Clear,170,2012-11-30 08:35:00
2:55 AM,50.0,33.8,54,30.11,10.0,South,8.1,-,N/A,,Clear,180,2012-11-30 08:55:00
3:15 AM,51.8,33.8,50,30.11,10.0,South,6.9,-,N/A,,Clear,170,2012-11-30 09:15:00
3:55 AM,50.0,33.8,54,30.11,10.0,South,3.5,-,N/A,,Clear,180,2012-11-30 09:55:00
4:15 AM,50.0,35.6,58,30.11,10.0,South,3.5,-,N/A,,Clear,190,2012-11-30 10:15:00
4:35 AM,50.0,35.6,58,30.10,10.0,South,3.5,-,N/A,,Clear,170,2012-11-30 10:35:00
4:55 AM,50.0,35.6,58,30.10,10.0,South,4.6,-,N/A,,Clear,170,2012-11-30 10:55:00
5:15 AM,50.0,37.4,62,30.10,10.0,South,4.6,-,N/A,,Clear,180,2012-11-30 11:15:00
5:55 AM,50.0,37.4,62,30.10,10.0,Calm,Calm,-,N/A,,Clear,0,2012-11-30 11:55:00
6:15 AM,50.0,37.4,62,30.11,10.0,Calm,Calm,-,N/A,,Clear,0,2012-11-30 12:15:00
6:35 AM,51.8,39.2,62,30.11,10.0,South,3.5,-,N/A,,Clear,180,2012-11-30 12:35:00
6:55 AM,50.0,39.2,66,30.11,10.0,South,5.8,-,N/A,,Clear,180,2012-11-30 12:55:00
7:15 AM,50.0,39.2,66,30.12,10.0,South,3.5,-,N/A,,Clear,180,2012-11-30 13:15:00
7:35 AM,50.0,41.0,71,30.12,10.0,South,4.6,-,N/A,,Clear,170,2012-11-30 13:35:00
7:55 AM,51.8,41.0,67,30.13,10.0,South,4.6,-,N/A,,Clear,170,2012-11-30 13:55:00
8:15 AM,53.6,41.0,62,30.13,10.0,South,3.5,-,N/A,,Clear,170,2012-11-30 14:15:00
8:35 AM,53.6,42.8,67,30.13,10.0,South,5.8,-,N/A,,Clear,180,2012-11-30 14:35:00
8:55 AM,55.4,44.6,67,30.13,10.0,South,9.2,-,N/A,,Clear,180,2012-11-30 14:55:00
9:15 AM,57.2,44.6,63,30.14,10.0,South,6.9,-,N/A,,Clear,180,2012-11-30 15:15:00
9:35 AM,59.0,46.4,63,30.14,10.0,South,8.1,-,N/A,,Clear,190,2012-11-30 15:35:00
9:55 AM,60.8,46.4,59,30.14,10.0,SSW,9.2,-,N/A,,Clear,200,2012-11-30 15:55:00
10:15 AM,62.6,48.2,59,30.13,10.0,South,9.2,-,N/A,,Clear,190,2012-11-30 16:15:00
10:35 AM,62.6,50.0,63,30.13,10.0,South,9.2,-,N/A,,Clear,190,2012-11-30 16:35:00
10:55 AM,64.4,50.0,59,30.13,10.0,South,8.1,-,N/A,,Clear,170,2012-11-30 16:55:00
11:15 AM,64.4,50.0,59,30.12,10.0,South,8.1,-,N/A,,Clear,170,2012-11-30 17:15:00
11:35 AM,66.2,51.8,60,30.11,10.0,South,8.1,-,N/A,,Clear,180,2012-11-30 17:35:00
11:55 AM,66.2,51.8,60,30.10,10.0,South,6.9,-,N/A,,Clear,180,2012-11-30 17:55:00
12:15 PM,68.0,51.8,56,30.09,10.0,South,9.2,-,N/A,,Clear,180,2012-11-30 18:15:00
12:35 PM,68.0,51.8,56,30.08,10.0,South,8.1,-,N/A,,Clear,170,2012-11-30 18:35:00
12:55 PM,68.0,51.8,56,30.08,10.0,South,9.2,-,N/A,,Clear,180,2012-11-30 18:55:00
1:15 PM,68.0,51.8,56,30.07,10.0,SW,6.9,-,N/A,,Clear,220,2012-11-30 19:15:00
1:35 PM,68.0,51.8,56,30.06,10.0,South,9.2,-,N/A,,Clear,190,2012-11-30 19:35:00
1:55 PM,69.8,51.8,53,30.06,10.0,SSW,9.2,-,N/A,,Clear,200,2012-11-30 19:55:00
2:15 PM,69.8,51.8,53,30.05,10.0,South,9.2,-,N/A,,Clear,180,2012-11-30 20:15:00
2:35 PM,69.8,51.8,53,30.05,10.0,South,6.9,-,N/A,,Clear,170,2012-11-30 20:35:00
2:55 PM,69.8,51.8,53,30.04,10.0,South,9.2,-,N/A,,Clear,170,2012-11-30 20:55:00
3:15 PM,69.8,51.8,53,30.04,10.0,South,8.1,-,N/A,,Clear,180,2012-11-30 21:15:00
3:35 PM,69.8,51.8,53,30.05,10.0,South,5.8,-,N/A,,Clear,170,2012-11-30 21:35:00
3:55 PM,68.0,51.8,56,30.05,10.0,SSE,9.2,-,N/A,,Clear,150,2012-11-30 21:55:00
4:15 PM,68.0,51.8,56,30.05,10.0,SSE,8.1,-,N/A,,Clear,160,2012-11-30 22:15:00
4:35 PM,68.0,51.8,56,30.05,10.0,SSE,4.6,-,N/A,,Clear,160,2012-11-30 22:35:00
4:55 PM,64.4,51.8,64,30.05,10.0,SSE,3.5,-,N/A,,Clear,150,2012-11-30 22:55:00
5:15 PM,62.6,51.8,68,30.04,10.0,SE,3.5,-,N/A,,Clear,130,2012-11-30 23:15:00
5:35 PM,60.8,51.8,72,30.04,10.0,East,3.5,-,N/A,,Clear,100,2012-11-30 23:35:00
5:55 PM,60.8,51.8,72,30.04,10.0,Calm,Calm,-,N/A,,Clear,0,2012-11-30 23:55:00
6:15 PM,57.2,51.8,82,30.04,10.0,ESE,3.5,-,N/A,,Clear,120,2012-12-01 00:15:00
6:35 PM,55.4,50.0,82,30.04,10.0,ESE,4.6,-,N/A,,Clear,120,2012-12-01 00:35:00
6:55 PM,55.4,50.0,82,30.04,10.0,ESE,3.5,-,N/A,,Clear,120,2012-12-01 00:55:00
7:15 PM,55.4,50.0,82,30.04,10.0,East,3.5,-,N/A,,Clear,100,2012-12-01 01:15:00
7:35 PM,53.6,50.0,88,30.04,10.0,Calm,Calm,-,N/A,,Clear,0,2012-12-01 01:35:00
7:55 PM,53.6,50.0,88,30.04,10.0,ESE,4.6,-,N/A,,Clear,110,2012-12-01 01:55:00
8:15 PM,53.6,50.0,88,30.04,7.0,East,3.5,-,N/A,,Clear,100,2012-12-01 02:15:00
8:35 PM,51.8,50.0,94,30.04,7.0,ESE,3.5,-,N/A,,Clear,120,2012-12-01 02:35:00
8:55 PM,55.4,51.8,88,30.04,10.0,South,6.9,-,N/A,,Clear,170,2012-12-01 02:55:00
9:15 PM,57.2,53.6,88,30.06,10.0,SSW,5.8,-,N/A,,Clear,200,2012-12-01 03:15:00
9:35 PM,59.0,53.6,82,30.05,10.0,SSW,10.4,-,N/A,,Scattered Clouds,200,2012-12-01 03:35:00
9:55 PM,59.0,53.6,82,30.05,10.0,South,4.6,-,N/A,,Scattered Clouds,190,2012-12-01 03:55:00
10:15 PM,57.2,53.6,88,30.06,10.0,Calm,Calm,-,N/A,,Scattered Clouds,0,2012-12-01 04:15:00
10:35 PM,57.2,53.6,88,30.07,10.0,Calm,Calm,-,N/A,,Overcast,0,2012-12-01 04:35:00
10:55 PM,57.2,53.6,88,30.06,10.0,ESE,3.5,-,N/A,,Overcast,110,2012-12-01 04:55:00
11:15 PM,55.4,53.6,94,30.07,7.0,Calm,Calm,-,N/A,,Overcast,0,2012-12-01 05:15:00
11:35 PM,55.4,55.4,100,30.06,7.0,Calm,Calm,-,N/A,,Overcast,0,2012-12-01 05:35:00
11:55 PM,57.2,55.4,94,30.06,7.0,ESE,5.8,-,N/A,,Mostly Cloudy,120,2012-12-01 05:55:00